カタログに戻る

HAWK-13B

運用中科学SSO
NORAD 67396·PAYLOAD·🇺🇸 United States

打ち上げ Jan 11, 2026 から Vandenberg Space Force Base

Loading…

次のパス (今後24時間)

TLE

最新Source: Space-Track

元期: Sep 13, 2026, 23:11 UTC

1 67396U 26004AK  26256.96639437  .00003533  00000-0  16829-3 0  9994
2 67396  97.4582 254.9428 0007647  37.7564 322.4206 15.19763281 37246

AllMySatでHAWK-13Bをリアルタイム追跡

Download on the App Store